Year,Month,Day,Hour,Minute,Value (Times are PST for temperature in C)
2021,09,26,00,00,14.40
2021,09,26,00,01,14.40
2021,09,26,00,02,14.40
2021,09,26,00,03,14.40
2021,09,26,00,04,14.40
2021,09,26,00,05,14.40
2021,09,26,00,06,14.40
2021,09,26,00,07,14.40
2021,09,26,00,08,14.40
2021,09,26,00,09,14.40
2021,09,26,00,10,14.40
2021,09,26,00,11,14.40
2021,09,26,00,12,14.40
2021,09,26,00,13,14.40
2021,09,26,00,14,14.40
2021,09,26,00,15,14.40
2021,09,26,00,16,14.30
2021,09,26,00,17,14.30
2021,09,26,00,18,14.30
2021,09,26,00,19,14.30
2021,09,26,00,20,14.30
2021,09,26,00,21,14.30
2021,09,26,00,22,14.30
2021,09,26,00,23,14.30
2021,09,26,00,24,14.30
2021,09,26,00,25,14.30
2021,09,26,00,26,14.30
2021,09,26,00,27,14.30
2021,09,26,00,28,14.20
2021,09,26,00,29,14.20
2021,09,26,00,30,14.20
2021,09,26,00,31,14.20
2021,09,26,00,32,14.20
2021,09,26,00,33,14.20
2021,09,26,00,34,14.20
2021,09,26,00,35,14.20
2021,09,26,00,36,14.20
2021,09,26,00,37,14.20
2021,09,26,00,38,14.20
2021,09,26,00,39,14.20
2021,09,26,00,40,14.20
2021,09,26,00,41,14.10
2021,09,26,00,42,14.10
2021,09,26,00,43,14.10
2021,09,26,00,44,14.10
2021,09,26,00,45,14.10
2021,09,26,00,46,14.10
2021,09,26,00,47,14.10
2021,09,26,00,48,14.10
2021,09,26,00,49,14.10
2021,09,26,00,50,14.10
2021,09,26,00,51,14.10
2021,09,26,00,52,14.10
2021,09,26,00,53,14.10
2021,09,26,00,54,14.10
2021,09,26,00,55,14.10
2021,09,26,00,56,14.00
2021,09,26,00,57,14.00
2021,09,26,00,58,14.00
2021,09,26,00,59,14.00
2021,09,26,01,00,14.00
2021,09,26,01,01,14.00
2021,09,26,01,02,13.90
2021,09,26,01,03,13.90
2021,09,26,01,04,13.90
2021,09,26,01,05,13.90
2021,09,26,01,06,13.90
2021,09,26,01,07,13.90
2021,09,26,01,08,13.90
2021,09,26,01,09,13.90
2021,09,26,01,10,13.90
2021,09,26,01,11,13.90
2021,09,26,01,12,13.80
2021,09,26,01,13,13.80
2021,09,26,01,14,13.80
2021,09,26,01,15,13.80
2021,09,26,01,16,13.80
2021,09,26,01,17,13.80
2021,09,26,01,18,13.80
2021,09,26,01,19,13.90
2021,09,26,01,20,13.90
2021,09,26,01,21,13.90
2021,09,26,01,22,13.90
2021,09,26,01,23,13.90
2021,09,26,01,24,13.90
2021,09,26,01,25,13.90
2021,09,26,01,26,14.00
2021,09,26,01,27,14.00
2021,09,26,01,28,14.00
2021,09,26,01,29,14.00
2021,09,26,01,30,14.10
2021,09,26,01,31,14.10
2021,09,26,01,32,14.10
2021,09,26,01,33,14.20
2021,09,26,01,34,14.20
2021,09,26,01,35,14.20
2021,09,26,01,36,14.30
2021,09,26,01,37,14.30
2021,09,26,01,38,14.30
2021,09,26,01,39,14.40
2021,09,26,01,40,14.40
2021,09,26,01,41,14.40
2021,09,26,01,42,14.40
2021,09,26,01,43,14.50
2021,09,26,01,44,14.50
2021,09,26,01,45,14.50
2021,09,26,01,46,14.50
2021,09,26,01,47,14.50
2021,09,26,01,48,14.50
2021,09,26,01,49,14.40
2021,09,26,01,50,14.40
2021,09,26,01,51,14.40
2021,09,26,01,52,14.40
2021,09,26,01,53,14.40
2021,09,26,01,54,14.40
2021,09,26,01,55,14.30
2021,09,26,01,56,14.30
2021,09,26,01,57,14.30
2021,09,26,01,58,14.20
2021,09,26,01,59,14.20
2021,09,26,02,00,14.10
2021,09,26,02,01,14.10
2021,09,26,02,02,14.00
2021,09,26,02,03,14.00
2021,09,26,02,04,13.90
2021,09,26,02,05,13.90
2021,09,26,02,06,13.90
2021,09,26,02,07,13.90
2021,09,26,02,08,13.90
2021,09,26,02,09,13.90
2021,09,26,02,10,13.90
2021,09,26,02,11,13.80
2021,09,26,02,12,13.80
2021,09,26,02,13,13.80
2021,09,26,02,14,13.80
2021,09,26,02,15,13.70
2021,09,26,02,16,13.70
2021,09,26,02,17,13.70
2021,09,26,02,18,13.70
2021,09,26,02,19,13.70
2021,09,26,02,20,13.70
2021,09,26,02,21,13.70
2021,09,26,02,22,13.70
2021,09,26,02,23,13.70
2021,09,26,02,24,13.80
2021,09,26,02,25,13.80
2021,09,26,02,26,13.80
2021,09,26,02,27,13.80
2021,09,26,02,28,13.80
2021,09,26,02,29,13.80
2021,09,26,02,30,13.80
2021,09,26,02,31,13.80
2021,09,26,02,32,13.80
2021,09,26,02,33,13.80
2021,09,26,02,34,13.80
2021,09,26,02,35,13.80
2021,09,26,02,36,13.80
2021,09,26,02,37,13.80
2021,09,26,02,38,13.80
2021,09,26,02,39,13.80
2021,09,26,02,40,13.80
2021,09,26,02,41,13.80
2021,09,26,02,42,13.80
2021,09,26,02,43,13.70
2021,09,26,02,44,13.70
2021,09,26,02,45,13.70
2021,09,26,02,46,13.70
2021,09,26,02,47,13.70
2021,09,26,02,48,13.60
2021,09,26,02,49,13.60
2021,09,26,02,50,13.60
2021,09,26,02,51,13.60
2021,09,26,02,52,13.60
2021,09,26,02,53,13.60
2021,09,26,02,54,13.60
2021,09,26,02,55,13.60
2021,09,26,02,56,13.60
2021,09,26,02,57,13.60
2021,09,26,02,58,13.60
2021,09,26,02,59,13.70
2021,09,26,03,00,13.70
2021,09,26,03,01,13.80
2021,09,26,03,02,13.90
2021,09,26,03,03,13.90
2021,09,26,03,04,14.00
2021,09,26,03,05,14.00
2021,09,26,03,06,14.00
2021,09,26,03,07,14.00
2021,09,26,03,08,14.00
2021,09,26,03,09,14.00
2021,09,26,03,10,14.00
2021,09,26,03,11,14.00
2021,09,26,03,12,14.00
2021,09,26,03,13,14.00
2021,09,26,03,14,14.00
2021,09,26,03,15,14.00
2021,09,26,03,16,14.00
2021,09,26,03,17,14.00
2021,09,26,03,18,14.00
2021,09,26,03,19,14.00
2021,09,26,03,20,14.00
2021,09,26,03,21,13.90
2021,09,26,03,22,13.90
2021,09,26,03,23,13.90
2021,09,26,03,24,13.90
2021,09,26,03,25,13.80
2021,09,26,03,26,13.80
2021,09,26,03,27,13.80
2021,09,26,03,28,13.80
2021,09,26,03,29,13.80
2021,09,26,03,30,13.70
2021,09,26,03,31,13.70
2021,09,26,03,32,13.70
2021,09,26,03,33,13.70
2021,09,26,03,34,13.70
2021,09,26,03,35,13.60
2021,09,26,03,36,13.60
2021,09,26,03,37,13.60
2021,09,26,03,38,13.60
2021,09,26,03,39,13.50
2021,09,26,03,40,13.50
2021,09,26,03,41,13.50
2021,09,26,03,42,13.40
2021,09,26,03,43,13.40
2021,09,26,03,44,13.40
2021,09,26,03,45,13.40
2021,09,26,03,46,13.30
2021,09,26,03,47,13.30
2021,09,26,03,48,13.30
2021,09,26,03,49,13.30
2021,09,26,03,50,13.30
2021,09,26,03,51,13.30
2021,09,26,03,52,13.40
2021,09,26,03,53,13.40
2021,09,26,03,54,13.40
2021,09,26,03,55,13.40
2021,09,26,03,56,13.40
2021,09,26,03,57,13.50
2021,09,26,03,58,13.50
2021,09,26,03,59,13.50
2021,09,26,04,00,13.50
2021,09,26,04,01,13.50
2021,09,26,04,02,13.50
2021,09,26,04,03,13.50
2021,09,26,04,04,13.60
2021,09,26,04,05,13.60
2021,09,26,04,06,13.60
2021,09,26,04,07,13.50
2021,09,26,04,08,13.50
2021,09,26,04,09,13.50
2021,09,26,04,10,13.50
2021,09,26,04,11,13.50
2021,09,26,04,12,13.40
2021,09,26,04,13,13.40
2021,09,26,04,14,13.40
2021,09,26,04,15,13.40
2021,09,26,04,16,13.40
2021,09,26,04,17,13.40
2021,09,26,04,18,13.40
2021,09,26,04,19,13.40
2021,09,26,04,20,13.40
2021,09,26,04,21,13.40
2021,09,26,04,22,13.40
2021,09,26,04,23,13.40
2021,09,26,04,24,13.40
2021,09,26,04,25,13.40
2021,09,26,04,26,13.40
2021,09,26,04,27,13.40
2021,09,26,04,28,13.40
2021,09,26,04,29,13.40
2021,09,26,04,30,13.40
2021,09,26,04,31,13.40
2021,09,26,04,32,13.40
2021,09,26,04,33,13.40
2021,09,26,04,34,13.40
2021,09,26,04,35,13.40
2021,09,26,04,36,13.40
2021,09,26,04,37,13.40
2021,09,26,04,38,13.40
2021,09,26,04,39,13.40
2021,09,26,04,40,13.40
2021,09,26,04,41,13.40
2021,09,26,04,42,13.40
2021,09,26,04,43,13.40
2021,09,26,04,44,13.40
2021,09,26,04,45,13.40
2021,09,26,04,46,13.40
2021,09,26,04,47,13.50
2021,09,26,04,48,13.50
2021,09,26,04,49,13.50
2021,09,26,04,50,13.50
2021,09,26,04,51,13.50
2021,09,26,04,52,13.50
2021,09,26,04,53,13.50
2021,09,26,04,54,13.50
2021,09,26,04,55,13.50
2021,09,26,04,56,13.50
2021,09,26,04,57,13.50
2021,09,26,04,58,13.50
2021,09,26,04,59,13.50
2021,09,26,05,00,13.50
2021,09,26,05,01,13.40
2021,09,26,05,02,13.50
2021,09,26,05,03,13.50
2021,09,26,05,04,13.50
2021,09,26,05,05,13.40
2021,09,26,05,06,13.30
2021,09,26,05,07,13.30
2021,09,26,05,08,13.20
2021,09,26,05,09,13.10
2021,09,26,05,10,13.10
2021,09,26,05,11,13.00
2021,09,26,05,12,12.90
2021,09,26,05,13,12.90
2021,09,26,05,14,12.80
2021,09,26,05,15,12.80
2021,09,26,05,16,12.70
2021,09,26,05,17,12.60
2021,09,26,05,18,12.60
2021,09,26,05,19,12.50
2021,09,26,05,20,12.40
2021,09,26,05,21,12.30
2021,09,26,05,22,12.30
2021,09,26,05,23,12.20
2021,09,26,05,24,12.20
2021,09,26,05,25,12.10
2021,09,26,05,26,12.00
2021,09,26,05,27,11.90
2021,09,26,05,28,11.80
2021,09,26,05,29,11.80
2021,09,26,05,30,11.80
2021,09,26,05,31,11.70
2021,09,26,05,32,11.70
2021,09,26,05,33,11.70
2021,09,26,05,34,11.70
2021,09,26,05,35,11.70
2021,09,26,05,36,11.70
2021,09,26,05,37,11.60
2021,09,26,05,38,11.60
2021,09,26,05,39,11.60
2021,09,26,05,40,11.60
2021,09,26,05,41,11.60
2021,09,26,05,42,11.60
2021,09,26,05,43,11.70
2021,09,26,05,44,11.70
2021,09,26,05,45,11.80
2021,09,26,05,46,11.80
2021,09,26,05,47,11.90
2021,09,26,05,48,11.90
2021,09,26,05,49,11.90
2021,09,26,05,50,12.00
2021,09,26,05,51,12.00
2021,09,26,05,52,12.00
2021,09,26,05,53,12.00
2021,09,26,05,54,12.00
2021,09,26,05,55,12.00
2021,09,26,05,56,12.00
2021,09,26,05,57,12.00
2021,09,26,05,58,12.10
2021,09,26,05,59,12.00
2021,09,26,06,00,12.10
2021,09,26,06,01,12.10
2021,09,26,06,02,12.10
2021,09,26,06,03,12.10
2021,09,26,06,04,12.00
2021,09,26,06,05,12.00
2021,09,26,06,06,12.00
2021,09,26,06,07,12.00
2021,09,26,06,08,12.00
2021,09,26,06,09,12.00
2021,09,26,06,10,12.00
2021,09,26,06,11,12.00
2021,09,26,06,12,12.00
2021,09,26,06,13,12.00
2021,09,26,06,14,12.00
2021,09,26,08,30,11.80
2021,09,26,08,31,11.70
2021,09,26,08,32,11.70
2021,09,26,08,33,11.80
2021,09,26,08,34,11.80
2021,09,26,08,35,11.80
2021,09,26,08,36,11.70
2021,09,26,08,37,11.80
2021,09,26,08,38,11.80
2021,09,26,08,39,11.70
2021,09,26,08,40,11.70
2021,09,26,08,41,11.70
2021,09,26,08,42,11.80
2021,09,26,08,43,11.70
2021,09,26,08,44,11.70
2021,09,26,08,45,11.70
2021,09,26,08,46,11.70
2021,09,26,08,47,11.70
2021,09,26,08,48,11.70
2021,09,26,08,49,11.70
2021,09,26,08,50,11.70
2021,09,26,08,51,11.70
2021,09,26,08,52,11.70
2021,09,26,08,53,11.70
2021,09,26,08,54,11.70
2021,09,26,08,55,11.70
2021,09,26,08,56,11.70
2021,09,26,08,57,11.70
2021,09,26,08,58,11.70
2021,09,26,08,59,11.70
2021,09,26,09,00,11.70
2021,09,26,09,01,11.70
2021,09,26,09,02,11.70
2021,09,26,09,03,11.70
2021,09,26,09,04,11.70
2021,09,26,09,05,11.70
2021,09,26,09,06,11.70
2021,09,26,09,07,11.70
2021,09,26,09,08,11.70
2021,09,26,09,09,11.70
2021,09,26,09,10,11.70
2021,09,26,09,11,11.70
2021,09,26,09,12,11.70
2021,09,26,09,13,11.70
2021,09,26,09,14,11.70
2021,09,26,09,15,11.70
2021,09,26,09,16,11.70
2021,09,26,09,17,11.70
2021,09,26,09,18,11.70
2021,09,26,09,19,11.80
2021,09,26,09,20,11.70
2021,09,26,09,21,11.70
2021,09,26,09,22,11.70
2021,09,26,09,23,11.70
2021,09,26,09,24,11.70
2021,09,26,09,25,11.70
2021,09,26,09,26,11.70
2021,09,26,09,27,11.70
2021,09,26,09,28,11.70
2021,09,26,09,29,11.70
2021,09,26,09,30,11.70
2021,09,26,09,31,11.70
2021,09,26,09,32,11.70
2021,09,26,09,33,11.70
2021,09,26,09,34,11.70
2021,09,26,09,35,11.70
2021,09,26,09,36,11.70
2021,09,26,09,37,11.70
2021,09,26,09,38,11.80
2021,09,26,09,39,11.80
2021,09,26,09,40,11.80
2021,09,26,09,41,11.80
2021,09,26,09,42,11.80
2021,09,26,09,43,11.80
2021,09,26,09,44,11.80
2021,09,26,09,45,11.80
2021,09,26,09,46,11.90
2021,09,26,09,47,11.90
2021,09,26,09,48,11.90
2021,09,26,09,49,11.90
2021,09,26,09,50,11.90
2021,09,26,09,51,11.90
2021,09,26,09,52,11.90
2021,09,26,09,53,11.90
2021,09,26,09,54,11.90
2021,09,26,09,55,12.00
2021,09,26,09,56,12.00
2021,09,26,09,57,12.10
2021,09,26,09,58,12.10
2021,09,26,09,59,12.10
2021,09,26,10,00,12.20
2021,09,26,10,01,12.20
2021,09,26,10,02,12.20
2021,09,26,10,03,12.20
2021,09,26,10,04,12.20
2021,09,26,10,05,12.30
2021,09,26,10,06,12.30
2021,09,26,10,07,12.30
2021,09,26,10,08,12.30
2021,09,26,10,09,12.30
2021,09,26,10,10,12.30
2021,09,26,10,11,12.30
2021,09,26,10,12,12.30
2021,09,26,10,13,12.30
2021,09,26,10,14,12.20
2021,09,26,10,15,12.20
2021,09,26,10,16,12.20
2021,09,26,10,17,12.20
2021,09,26,10,18,12.20
2021,09,26,10,19,12.20
2021,09,26,10,20,12.20
2021,09,26,10,21,12.30
2021,09,26,10,22,12.30
2021,09,26,10,23,12.30
2021,09,26,10,24,12.20
2021,09,26,10,25,12.20
2021,09,26,10,26,12.20
2021,09,26,10,27,12.20
2021,09,26,10,28,12.20
2021,09,26,10,29,12.20
2021,09,26,10,30,12.20
2021,09,26,10,31,12.20
2021,09,26,10,32,12.20
2021,09,26,10,33,12.20
2021,09,26,10,34,12.20
2021,09,26,10,35,12.20
2021,09,26,10,36,12.20
2021,09,26,10,37,12.20
2021,09,26,10,38,12.20
2021,09,26,10,39,12.20
2021,09,26,10,40,12.20
2021,09,26,10,41,12.20
2021,09,26,10,42,12.20
2021,09,26,10,43,12.20
2021,09,26,10,44,12.20
2021,09,26,10,45,12.20
2021,09,26,10,46,12.20
2021,09,26,10,47,12.20
2021,09,26,10,48,12.20
2021,09,26,10,49,12.20
2021,09,26,10,50,12.20
2021,09,26,10,51,12.20
2021,09,26,10,52,12.20
2021,09,26,10,53,12.20
2021,09,26,10,54,12.20
2021,09,26,10,55,12.30
2021,09,26,10,56,12.30
2021,09,26,10,57,12.30
2021,09,26,10,58,12.30
2021,09,26,10,59,12.30
2021,09,26,11,00,12.20
2021,09,26,11,01,12.20
2021,09,26,11,02,12.20
2021,09,26,11,03,12.30
2021,09,26,11,04,12.30
2021,09,26,11,05,12.30
2021,09,26,11,06,12.30
2021,09,26,11,07,12.30
2021,09,26,11,08,12.40
2021,09,26,11,09,12.40
2021,09,26,11,10,12.40
2021,09,26,11,11,12.40
2021,09,26,11,12,12.40
2021,09,26,11,13,12.40
2021,09,26,11,14,12.40
2021,09,26,11,15,12.40
2021,09,26,11,16,12.40
2021,09,26,11,17,12.40
2021,09,26,11,18,12.40
2021,09,26,11,19,12.40
2021,09,26,11,20,12.40
2021,09,26,11,21,12.30
2021,09,26,11,22,12.30
2021,09,26,11,23,12.40
2021,09,26,11,24,12.40
2021,09,26,11,25,12.40
2021,09,26,11,26,12.50
2021,09,26,11,27,12.50
2021,09,26,11,28,12.50
2021,09,26,11,29,12.50
2021,09,26,11,30,12.50
2021,09,26,11,31,12.50
2021,09,26,11,32,12.50
2021,09,26,11,33,12.50
2021,09,26,11,34,12.50
2021,09,26,11,35,12.50
2021,09,26,11,36,12.50
2021,09,26,11,37,12.60
2021,09,26,11,38,12.60
2021,09,26,11,39,12.60
2021,09,26,11,40,12.60
2021,09,26,11,41,12.60
2021,09,26,11,42,12.60
2021,09,26,11,43,12.60
2021,09,26,11,44,12.60
2021,09,26,11,45,12.60
2021,09,26,11,46,12.50
2021,09,26,11,47,12.50
2021,09,26,11,48,12.50
2021,09,26,11,49,12.50
2021,09,26,11,50,12.60
2021,09,26,11,51,12.60
2021,09,26,11,52,12.60
2021,09,26,11,53,12.70
2021,09,26,11,54,12.70
2021,09,26,11,55,12.70
2021,09,26,11,56,12.70
2021,09,26,11,57,12.70
2021,09,26,11,58,12.70
2021,09,26,11,59,12.70
2021,09,26,12,00,12.70
2021,09,26,12,01,12.80
2021,09,26,12,02,12.80
2021,09,26,12,03,12.80
2021,09,26,12,04,12.80
2021,09,26,12,05,12.80
2021,09,26,12,06,12.80
2021,09,26,12,07,12.80
2021,09,26,12,08,12.90
2021,09,26,12,09,12.90
2021,09,26,12,10,12.90
2021,09,26,12,11,12.90
2021,09,26,12,12,12.90
2021,09,26,12,13,12.90
2021,09,26,12,14,12.90
2021,09,26,12,15,13.00
2021,09,26,12,16,13.00
2021,09,26,12,17,13.00
2021,09,26,12,18,13.00
2021,09,26,12,19,13.00
2021,09,26,12,20,13.00
2021,09,26,12,21,13.10
2021,09,26,12,22,13.10
2021,09,26,12,23,13.10
2021,09,26,12,24,13.10
2021,09,26,12,25,13.20
2021,09,26,12,26,13.20
2021,09,26,12,27,13.20
2021,09,26,12,28,13.20
2021,09,26,12,29,13.20
2021,09,26,12,30,13.20
2021,09,26,12,31,13.20
2021,09,26,12,32,13.30
2021,09,26,12,33,13.30
2021,09,26,12,34,13.30
2021,09,26,12,35,13.30
2021,09,26,12,36,13.30
2021,09,26,12,37,13.30
2021,09,26,12,38,13.40
2021,09,26,12,39,13.40
2021,09,26,12,40,13.40
2021,09,26,12,41,13.40
2021,09,26,12,42,13.40
2021,09,26,12,43,13.40
2021,09,26,12,44,13.40
2021,09,26,12,45,13.40
2021,09,26,12,46,13.40
2021,09,26,12,47,13.40
2021,09,26,12,48,13.40
2021,09,26,12,49,13.40
2021,09,26,12,50,13.40
2021,09,26,12,51,13.40
2021,09,26,12,52,13.50
2021,09,26,12,53,13.50
2021,09,26,12,54,13.50
2021,09,26,12,55,13.50
2021,09,26,12,56,13.50
2021,09,26,12,57,13.50
2021,09,26,12,58,13.50
2021,09,26,12,59,13.50
2021,09,26,13,00,13.50
2021,09,26,13,01,13.50
2021,09,26,13,02,13.50
2021,09,26,13,03,13.50
2021,09,26,13,04,13.50
2021,09,26,13,05,13.50
2021,09,26,13,06,13.50
2021,09,26,13,07,13.60
2021,09,26,13,08,13.60
2021,09,26,13,09,13.60
2021,09,26,13,10,13.60
2021,09,26,13,11,13.60
2021,09,26,13,12,13.60
2021,09,26,13,13,13.60
2021,09,26,13,14,13.60
2021,09,26,13,15,13.60
2021,09,26,13,16,13.60
2021,09,26,13,17,13.60
2021,09,26,13,18,13.60
2021,09,26,13,19,13.60
2021,09,26,13,20,13.70
2021,09,26,13,21,13.70
2021,09,26,13,22,13.70
2021,09,26,13,23,13.70
2021,09,26,13,24,13.70
2021,09,26,13,25,13.70
2021,09,26,13,26,13.60
2021,09,26,13,27,13.60
2021,09,26,13,28,13.70
2021,09,26,13,29,13.60
2021,09,26,13,30,13.70
2021,09,26,13,31,13.60
2021,09,26,13,32,13.60
2021,09,26,13,33,13.60
2021,09,26,13,34,13.60
2021,09,26,13,35,13.60
2021,09,26,13,36,13.60
2021,09,26,13,37,13.70
2021,09,26,13,38,13.70
2021,09,26,13,39,13.70
2021,09,26,13,40,13.60
2021,09,26,13,41,13.70
2021,09,26,13,42,13.70
2021,09,26,13,43,13.70
2021,09,26,13,44,13.70
2021,09,26,13,45,13.70
2021,09,26,13,46,13.70
2021,09,26,13,47,13.60
2021,09,26,13,48,13.60
2021,09,26,13,49,13.60
2021,09,26,13,50,13.60
2021,09,26,13,51,13.60
2021,09,26,13,52,13.60
2021,09,26,13,53,13.60
2021,09,26,13,54,13.60
2021,09,26,13,55,13.60
2021,09,26,13,56,13.60
2021,09,26,13,57,13.60
2021,09,26,13,58,13.60
2021,09,26,13,59,13.60
2021,09,26,14,00,13.60
2021,09,26,14,01,13.60
2021,09,26,14,02,13.60
2021,09,26,14,03,13.60
2021,09,26,14,04,13.60
2021,09,26,14,05,13.60
2021,09,26,14,06,13.60
2021,09,26,14,07,13.60
2021,09,26,14,08,13.70
2021,09,26,14,09,13.70
2021,09,26,14,10,13.70
2021,09,26,14,11,13.70
2021,09,26,14,12,13.70
2021,09,26,14,13,13.70
2021,09,26,14,14,13.70
2021,09,26,14,15,13.70
2021,09,26,14,16,13.60
2021,09,26,14,17,13.70
2021,09,26,14,18,13.70
2021,09,26,14,19,13.70
2021,09,26,14,20,13.70
2021,09,26,14,21,13.70
2021,09,26,14,22,13.70
2021,09,26,14,23,13.70
2021,09,26,14,24,13.70
2021,09,26,14,25,13.70
2021,09,26,14,26,13.70
2021,09,26,14,27,13.70
2021,09,26,14,28,13.70
2021,09,26,14,29,13.70
2021,09,26,14,30,13.70
2021,09,26,14,31,13.70
2021,09,26,14,32,13.70
2021,09,26,14,33,13.70
2021,09,26,14,34,13.70
2021,09,26,14,35,13.70
2021,09,26,14,36,13.60
2021,09,26,14,37,13.60
2021,09,26,14,38,13.60
2021,09,26,14,39,13.60
2021,09,26,14,40,13.60
2021,09,26,14,41,13.60
2021,09,26,14,42,13.60
2021,09,26,14,43,13.60
2021,09,26,14,44,13.60
2021,09,26,14,45,13.50
2021,09,26,14,46,13.50
2021,09,26,14,47,13.40
2021,09,26,14,48,13.40
2021,09,26,14,49,13.40
2021,09,26,14,50,13.40
2021,09,26,14,51,13.40
2021,09,26,14,52,13.40
2021,09,26,14,53,13.40
2021,09,26,14,54,13.40
2021,09,26,14,55,13.40
2021,09,26,14,56,13.40
2021,09,26,14,57,13.40
2021,09,26,14,58,13.40
2021,09,26,14,59,13.40
2021,09,26,15,00,13.40
2021,09,26,15,01,13.30
2021,09,26,15,02,13.30
2021,09,26,15,03,13.30
2021,09,26,15,04,13.30
2021,09,26,15,05,13.30
2021,09,26,15,06,13.30
2021,09,26,15,07,13.30
2021,09,26,15,08,13.30
2021,09,26,15,09,13.30
2021,09,26,15,10,13.30
2021,09,26,15,11,13.30
2021,09,26,15,12,13.20
2021,09,26,15,13,13.20
2021,09,26,15,14,13.20
2021,09,26,15,15,13.20
2021,09,26,15,16,13.20
2021,09,26,15,17,13.20
2021,09,26,15,18,13.20
2021,09,26,15,19,13.20
2021,09,26,15,20,13.20
2021,09,26,15,21,13.20
2021,09,26,15,22,13.20
2021,09,26,15,23,13.20
2021,09,26,15,24,13.20
2021,09,26,15,25,13.10
2021,09,26,15,26,13.10
2021,09,26,15,27,13.10
2021,09,26,15,28,13.10
2021,09,26,15,29,13.10
2021,09,26,15,30,13.10
2021,09,26,15,31,13.10
2021,09,26,15,32,13.00
2021,09,26,15,33,13.00
2021,09,26,15,34,13.00
2021,09,26,15,35,13.00
2021,09,26,15,36,13.10
2021,09,26,15,37,13.10
2021,09,26,15,38,13.10
2021,09,26,15,39,13.10
2021,09,26,15,40,13.10
2021,09,26,15,41,13.10
2021,09,26,15,42,13.10
2021,09,26,15,43,13.10
2021,09,26,15,44,13.10
2021,09,26,15,45,13.10
2021,09,26,15,46,13.10
2021,09,26,15,47,13.10
2021,09,26,15,48,13.10
2021,09,26,15,49,13.10
2021,09,26,15,50,13.10
2021,09,26,15,51,13.10
2021,09,26,15,52,13.10
2021,09,26,15,53,13.10
2021,09,26,15,54,13.10
2021,09,26,15,55,13.10
2021,09,26,15,56,13.10
2021,09,26,15,57,13.10
2021,09,26,15,58,13.10
2021,09,26,15,59,13.10
2021,09,26,16,00,13.10
2021,09,26,16,01,13.10
2021,09,26,16,02,13.10
2021,09,26,16,03,13.00
2021,09,26,16,04,13.00
2021,09,26,16,05,13.00
2021,09,26,16,06,13.00
2021,09,26,16,07,13.00
2021,09,26,16,08,13.00
2021,09,26,16,09,13.00
2021,09,26,16,10,13.00
2021,09,26,16,11,12.90
2021,09,26,16,12,12.90
2021,09,26,16,13,12.90
2021,09,26,16,14,12.90
2021,09,26,16,15,12.80
2021,09,26,16,16,12.80
2021,09,26,16,17,12.80
2021,09,26,16,18,12.80
2021,09,26,16,19,12.80
2021,09,26,16,20,12.70
2021,09,26,16,21,12.70
2021,09,26,16,22,12.70
2021,09,26,16,23,12.70
2021,09,26,16,24,12.70
2021,09,26,16,25,12.70
2021,09,26,16,26,12.70
2021,09,26,16,27,12.70
2021,09,26,16,28,12.70
2021,09,26,16,29,12.70
2021,09,26,16,30,12.70
2021,09,26,16,31,12.70
2021,09,26,16,32,12.70
2021,09,26,16,33,12.70
2021,09,26,16,34,12.70
2021,09,26,16,35,12.70
2021,09,26,16,36,12.70
2021,09,26,16,37,12.70
2021,09,26,16,38,12.70
2021,09,26,16,39,12.70
2021,09,26,16,40,12.70
2021,09,26,16,41,12.70
2021,09,26,16,42,12.70
2021,09,26,16,43,12.70
2021,09,26,16,44,12.70
2021,09,26,16,45,12.70
2021,09,26,16,46,12.70
2021,09,26,16,47,12.70
2021,09,26,16,48,12.70
2021,09,26,16,49,12.70
2021,09,26,16,50,12.70
2021,09,26,16,51,12.70
2021,09,26,16,52,12.70
2021,09,26,16,53,12.70
2021,09,26,16,54,12.70
2021,09,26,16,55,12.70
2021,09,26,16,56,12.70
2021,09,26,16,57,12.70
2021,09,26,16,58,12.60
2021,09,26,16,59,12.60
2021,09,26,17,00,12.60
2021,09,26,17,01,12.70
2021,09,26,17,02,12.70
2021,09,26,17,03,12.70
2021,09,26,17,04,12.70
2021,09,26,17,05,12.70
2021,09,26,17,06,12.70
2021,09,26,17,07,12.70
2021,09,26,17,08,12.60
2021,09,26,17,09,12.70
2021,09,26,17,10,12.70
2021,09,26,17,11,12.70
2021,09,26,17,12,12.70
2021,09,26,17,13,12.70
2021,09,26,17,14,12.70
2021,09,26,17,15,12.70
2021,09,26,17,16,12.70
2021,09,26,17,17,12.70
2021,09,26,17,18,12.70
2021,09,26,17,19,12.70
2021,09,26,17,20,12.70
2021,09,26,17,21,12.70
2021,09,26,17,22,12.70
2021,09,26,17,23,12.70
2021,09,26,17,24,12.70
2021,09,26,17,25,12.70
2021,09,26,17,26,12.70
2021,09,26,17,27,12.70
2021,09,26,17,28,12.70
2021,09,26,17,29,12.70
2021,09,26,17,30,12.70
2021,09,26,17,31,12.70
2021,09,26,17,32,12.70
2021,09,26,17,33,12.70
2021,09,26,17,34,12.70
2021,09,26,17,35,12.70
2021,09,26,17,36,12.80
2021,09,26,17,37,12.80
2021,09,26,17,38,12.80
2021,09,26,17,39,12.80
2021,09,26,17,40,12.80
2021,09,26,17,41,12.80
2021,09,26,17,42,12.80
2021,09,26,17,43,12.80
2021,09,26,17,44,12.80
2021,09,26,17,45,12.90
2021,09,26,17,46,12.90
2021,09,26,17,47,12.90
2021,09,26,17,48,12.90
2021,09,26,17,49,12.90
2021,09,26,17,50,12.90
2021,09,26,17,51,12.90
2021,09,26,17,52,12.90
2021,09,26,17,53,12.90
2021,09,26,17,54,12.90
2021,09,26,17,55,12.90
2021,09,26,17,56,12.90
2021,09,26,17,57,12.90
2021,09,26,17,58,12.90
2021,09,26,17,59,12.90
2021,09,26,18,00,12.90
2021,09,26,18,01,12.90
2021,09,26,18,02,12.90
2021,09,26,18,03,12.90
2021,09,26,18,04,12.90
2021,09,26,18,05,12.90
2021,09,26,18,06,12.90
2021,09,26,18,07,12.90
2021,09,26,18,08,12.90
2021,09,26,18,09,12.90
2021,09,26,18,10,12.90
2021,09,26,18,11,12.90
2021,09,26,18,12,12.90
2021,09,26,18,13,12.90
2021,09,26,18,14,12.90
2021,09,26,18,15,12.90
2021,09,26,18,16,12.90
2021,09,26,18,17,12.90
2021,09,26,18,18,12.90
2021,09,26,18,19,12.90
2021,09,26,18,20,12.80
2021,09,26,18,21,12.80
2021,09,26,18,22,12.80
2021,09,26,18,23,12.80
2021,09,26,18,24,12.80
2021,09,26,18,25,12.80
2021,09,26,18,26,12.80
2021,09,26,18,27,12.80
2021,09,26,18,28,12.80
2021,09,26,18,29,12.80
2021,09,26,18,30,12.80
2021,09,26,18,31,12.80
2021,09,26,18,32,12.80
2021,09,26,18,33,12.70
2021,09,26,18,34,12.80
2021,09,26,18,35,12.70
2021,09,26,18,36,12.70
2021,09,26,18,37,12.70
2021,09,26,18,38,12.70
2021,09,26,18,39,12.70
2021,09,26,18,40,12.70
2021,09,26,18,41,12.70
2021,09,26,18,42,12.70
2021,09,26,18,43,12.70
2021,09,26,18,44,12.70
2021,09,26,18,45,12.70
2021,09,26,18,46,12.80
2021,09,26,18,47,12.80
2021,09,26,18,48,12.80
2021,09,26,18,49,12.80
2021,09,26,18,50,12.80
2021,09,26,18,51,12.80
2021,09,26,18,52,12.80
2021,09,26,18,53,12.80
2021,09,26,18,54,12.80
2021,09,26,18,55,12.80
2021,09,26,18,56,12.80
2021,09,26,18,57,12.80
2021,09,26,18,58,12.80
2021,09,26,18,59,12.80
2021,09,26,19,00,12.80
2021,09,26,19,01,12.90
2021,09,26,19,02,12.90
2021,09,26,19,03,12.90
2021,09,26,19,04,12.90
2021,09,26,19,05,12.90
2021,09,26,19,06,12.90
2021,09,26,19,07,12.90
2021,09,26,19,08,12.90
2021,09,26,19,09,12.90
2021,09,26,19,10,12.90
2021,09,26,19,11,12.80
2021,09,26,19,12,12.80
2021,09,26,19,13,12.80
2021,09,26,19,14,12.80
2021,09,26,19,15,12.80
2021,09,26,19,16,12.80
2021,09,26,19,17,12.80
2021,09,26,19,18,12.80
2021,09,26,19,19,12.80
2021,09,26,19,20,12.80
2021,09,26,19,21,12.80
2021,09,26,19,22,12.80
2021,09,26,19,23,12.80
2021,09,26,19,24,12.80
2021,09,26,19,25,12.80
2021,09,26,19,26,12.80
2021,09,26,19,27,12.80
2021,09,26,19,28,12.80
2021,09,26,19,29,12.80
2021,09,26,19,30,12.80
2021,09,26,19,31,12.80
2021,09,26,19,32,12.80
2021,09,26,19,33,12.80
2021,09,26,19,34,12.80